Theta_e
310 310 310 310 310 310 310 310 309 307 305 304 304 305 305 305 305 303 301 305 305 298 298 300 302 298 298 298 293 298 298 298 294 290 290 290 287 291 294 297 293 293 290 290 291 285 285 305 308 298 306 311 312 313
309 309 309 309 309 309 309 309 308 307 305 304 304 304 304 305 305 305 299 305 306 302 298 304 304 305 303 303 301 300 300 299 298 292 293 293 292 294 294 290 300 292 297 293 291 290 304 306 307 312 314 313 313 314
310 310 309 309 309 308 309 309 308 307 305 304 304 304 304 305 305 304 300 302 301 299 299 301 302 308 310 309 310 299 301 304 301 300 296 295 292 295 289 292 296 297 300 299 298 302 301 304 312 311 310 308 310 309
309 308 308 308 308 308 308 309 308 307 305 304 304 304 304 305 305 304 299 302 302 300 294 298 306 303 310 310 311 312 306 306 303 301 295 293 291 295 294 296 292 293 296 296 299 303 306 303 304 311 310 311 310 309
307 306 306 306 307 307 308 308 308 306 305 304 304 304 304 304 305 304 302 303 304 299 294 295 302 306 308 310 308 313 309 304 299 296 293 290 294 293 296 295 290 294 293 293 292 299 299 298 303 314 309 307 308 305
305 305 305 305 306 307 308 308 307 306 305 304 304 304 304 304 305 301 301 307 308 307 298 291 301 303 307 309 307 309 307 305 300 295 294 296 298 294 291 288 293 295 299 301 297 298 299 301 302 311 309 308 308 306
305 304 305 305 305 305 307 308 307 306 304 303 303 303 303 304 302 296 298 305 305 303 299 293 295 304 308 308 306 307 308 305 302 296 295 295 294 294 289 286 292 295 297 298 300 301 296 296 295 302 303 303 304 306
305 305 305 305 305 306 307 308 307 305 303 303 302 302 303 304 303 298 303 303 305 303 301 293 294 300 307 299 299 307 303 303 301 298 299 294 293 293 285 291 294 296 297 296 296 297 296 297 297 297 300 300 298 297
305 305 305 306 306 306 307 307 304 303 302 302 302 303 301 301 299 306 311 309 306 303 296 298 293 291 305 300 301 302 304 297 302 293 293 292 289 284 288 291 293 295 294 295 297 297 297 296 296 296 297 296 295 294
304 305 306 306 306 307 306 303 302 302 301 302 300 299 298 304 310 310 304 302 300 301 300 292 297 292 299 299 297 298 300 296 291 293 296 288 286 292 294 295 296 296 296 296 292 292 295 295 295 296 296 296 296 295
303 304 305 306 307 306 303 302 300 301 302 299 299 299 302 310 304 303 297 296 298 295 299 299 299 295 304 296 294 298 296 296 289 292 291 288 286 292 297 297 298 298 297 296 296 295 295 294 294 295 296 296 296 296
303 304 305 306 306 303 301 300 300 300 301 298 297 301 303 301 299 294 294 297 297 294 301 299 299 301 300 302 296 298 293 295 289 297 290 286 291 294 295 294 295 297 297 295 296 295 296 296 296 295 294 294 295 296
303 305 306 305 303 302 300 300 300 301 302 303 299 297 297 296 287 289 287 291 293 299 299 299 297 299 300 301 297 296 293 290 299 291 289 290 293 295 294 294 295 295 296 295 295 296 296 295 295 295 294 295 295 291
304 305 304 303 302 301 300 300 300 301 299 294 294 286 290 290 293 293 293 295 301 301 300 300 298 297 298 296 296 293 295 296 290 287 288 292 294 294 294 294 293 293 294 294 295 294 294 293 293 293 293 293 292 289
304 304 303 302 301 300 300 300 300 301 298 293 294 286 291 295 298 301 302 302 303 304 301 299 298 297 295 295 296 295 291 289 289 288 291 294 294 293 293 294 294 294 294 294 294 294 294 293 291 290 290 290 289 288
303 301 300 301 301 301 300 300 300 301 298 294 293 291 295 294 296 299 300 299 304 302 302 299 295 292 292 294 292 291 289 285 290 294 295 295 294 294 294 294 294 295 294 294 294 294 294 292 289 288 288 288 288 288
300 298 303 301 301 301 301 299 300 296 294 293 292 296 295 294 295 298 300 299 302 300 295 295 291 291 296 291 290 294 289 294 296 296 296 296 296 295 295 296 296 296 295 295 294 294 293 292 290 288 285 287 287 286
299 302 302 301 302 302 301 299 297 295 291 293 291 294 296 299 298 298 301 305 302 299 298 295 298 292 290 289 289 296 298 300 299 298 298 299 298 298 296 295 296 296 296 295 294 293 293 290 288 286 286 287 286 286
299 303 302 302 302 300 296 295 298 291 292 295 297 298 298 299 302 302 301 305 305 305 301 298 294 292 293 297 297 298 299 299 298 298 299 301 300 298 297 297 297 296 295 295 294 291 290 290 288 287 288 288 285 285
299 302 303 303 302 296 294 296 301 293 291 296 298 297 298 298 300 302 303 303 301 300 296 294 295 298 298 300 302 300 301 301 299 297 297 299 300 299 297 296 296 296 294 294 292 291 289 288 288 288 289 289 288 286
298 300 301 301 298 297 295 296 295 296 297 295 298 297 296 299 298 298 299 304 298 296 295 299 300 301 304 304 304 303 302 302 300 299 297 297 299 299 298 297 297 297 294 293 292 290 291 289 288 287 287 289 290 290
297 301 299 299 295 296 295 298 295 299 296 296 296 297 294 295 296 298 302 298 297 299 302 301 302 302 302 302 302 304 304 304 303 301 298 298 297 297 297 296 296 295 296 295 295 292 291 290 289 289 290 288 290 289
300 300 297 296 291 291 290 298 293 295 290 293 296 293 294 296 299 303 297 299 301 304 303 303 303 304 302 303 304 304 304 303 300 301 300 300 300 300 299 297 297 296 296 296 297 294 292 289 288 289 289 289 288 288
299 295 291 290 291 287 294 292 294 293 293 292 291 291 294 297 301 298 294 298 301 303 302 303 303 302 302 302 302 302 304 305 302 302 302 301 299 299 300 298 297 298 298 298 295 294 292 291 290 290 289 288 287 287
288 288 290 286 293 289 289 289 290 290 288 291 290 291 295 300 294 293 293 297 300 301 302 301 300 302 300 301 303 303 306 305 303 302 304 304 303 303 301 300 299 300 300 297 295 294 293 292 292 291 290 289 289 288
284 289 287 289 290 289 289 287 288 288 290 290 291 297 298 295 291 290 295 299 300 301 301 301 301 300 300 302 300 302 303 304 305 302 304 305 303 302 301 300 299 297 301 299 298 296 294 294 294 293 292 291 288 291
284 287 292 295 294 293 291 292 293 291 289 289 292 294 293 289 289 295 300 302 300 302 303 302 302 300 298 299 301 303 304 305 304 303 304 304 304 306 305 302 301 302 302 301 300 299 296 295 294 294 294 294 293 293
288 292 289 292 292 294 290 291 290 289 291 296 296 291 290 291 292 298 300 304 305 301 301 301 302 302 302 302 302 302 302 303 305 304 303 304 304 303 307 307 306 291 303 304 302 301 298 298 297 296 295 293 292 293
290 293 294 290 292 292 292 291 292 296 299 297 295 294 295 299 302 302 301 303 303 301 300 298 300 302 302 302 301 301 301 301 299 297 297 296 298 296 299 302 301 302 303 301 289 296 300 299 299 297 296 295 293 294
290 295 291 291 290 290 295 298 298 302 303 302 302 300 299 301 303 304 302 301 300 299 299 300 299 299 299 298 298 298 299 299 298 296 295 295 294 296 296 296 297 297 298 300 299 297 287 294 293 296 296 296 294 294
294 294 292 292 291 295 300 303 303 301 302 301 301 298 297 299 301 302 302 302 302 301 300 299 297 299 298 298 298 297 294 297 296 295 295 296 297 296 296 295 295 295 295 296 298 299 298 297 299 298 297 296 296 294
293 291 291 290 293 300 301 297 297 297 298 297 297 298 297 296 295 300 301 302 301 300 293 297 297 296 298 298 296 295 289 296 295 294 293 293 293 293 295 296 295 295 294 293 294 295 297 297 298 298 298 297 296 296
292 293 294 293 294 294 297 296 294 294 296 295 296 297 295 295 292 295 301 302 301 300 298 299 297 297 297 297 295 294 292 292 287 284 284 284 283 284 287 290 293 293 293 293 293 293 294 295 296 298 299 299 298 297
Wind_Speed
13 12 13 13 14 15 14 13 12 11 11 11 13 13 13 13 14 7 8 10 3 4 15 9 6 13 13 8 4 11 6 7 5 8 5 5 3 4 2 5 5 3 4 3 3 5 3 19 14 4 5 21 21 18
12 12 12 11 14 15 14 13 12 11 11 12 13 12 13 12 12 9 5 8 7 4 11 16 23 24 20 22 6 6 2 4 3 3 3 3 3 3 7 3 6 3 5 3 1 2 6 12 1 7 11 19 16 21
12 12 12 12 14 14 15 13 12 12 12 12 13 13 13 13 13 7 6 6 5 5 10 6 3 13 16 18 15 3 2 2 3 1 2 3 3 4 5 5 3 6 9 2 1 6 7 18 11 14 19 20 19 12
12 12 14 15 15 15 14 13 12 12 12 12 13 14 13 14 14 12 6 5 5 5 5 8 13 13 14 10 5 6 7 4 6 2 2 2 3 6 4 3 5 5 9 9 3 5 4 12 14 9 16 20 22 12
12 18 18 17 16 16 15 14 12 12 11 12 13 14 14 14 14 12 9 7 9 4 4 10 20 6 11 9 6 10 9 5 3 2 3 2 3 4 3 2 4 7 4 4 5 6 3 9 13 15 17 17 19 23
14 16 16 17 16 15 14 14 12 11 12 12 14 14 14 13 12 6 3 2 3 4 3 6 7 9 11 8 6 10 7 3 3 3 1 1 2 3 2 3 6 10 11 6 3 10 9 7 18 10 19 21 18 20
12 15 15 17 18 18 15 13 12 11 11 13 14 14 15 12 5 5 4 2 10 5 3 5 6 7 9 6 2 4 5 3 4 3 2 2 3 3 3 3 8 10 11 13 8 3 9 16 8 13 21 19 17 15
13 14 14 16 17 14 13 12 11 10 12 14 15 16 15 15 13 8 9 21 7 4 3 4 6 5 3 3 2 4 4 3 3 4 2 2 2 3 3 7 4 7 8 12 13 13 8 8 15 17 15 17 19 15
13 14 15 14 14 13 13 8 7 10 12 14 16 20 6 5 4 1 2 10 6 2 3 4 4 5 3 2 2 2 4 3 4 3 3 4 3 4 2 4 7 10 8 8 10 10 11 13 13 14 15 15 16 14
14 15 15 15 14 12 7 6 7 10 13 14 6 3 3 2 6 3 2 3 5 3 4 6 2 8 3 3 2 2 2 4 3 2 4 4 2 4 6 3 4 8 11 12 12 12 10 10 11 12 13 12 12 12
16 16 15 15 13 7 8 5 5 9 9 3 2 2 4 6 2 4 4 5 5 5 5 5 9 7 4 3 2 3 2 2 4 3 4 3 2 3 4 10 8 11 11 10 10 9 10 9 9 9 9 10 10 11
15 15 14 12 8 9 6 4 3 3 2 2 3 6 4 3 4 6 4 5 7 6 6 2 2 3 3 3 2 3 3 2 2 6 4 4 5 8 8 11 7 8 12 13 12 10 7 9 10 9 8 8 7 7
15 14 10 10 10 7 5 3 2 6 8 3 3 4 4 5 1 6 5 4 3 4 5 9 1 1 3 4 3 2 3 2 10 4 3 3 11 10 9 10 10 6 8 10 10 10 10 8 7 7 6 5 9 12
13 6 10 9 8 7 5 3 3 4 3 3 4 4 5 6 6 6 7 5 4 3 4 5 5 2 2 2 3 2 5 4 2 2 3 6 11 9 6 8 10 10 7 7 8 10 11 10 8 7 7 9 11 10
7 10 10 9 9 8 6 4 3 2 3 4 5 5 7 8 7 2 3 1 1 3 1 4 2 1 1 2 3 1 4 1 3 3 4 8 12 11 8 5 6 7 7 6 5 6 9 10 10 11 9 9 9 7
11 7 6 10 11 9 7 4 3 3 3 5 7 5 8 7 6 4 3 3 1 5 3 1 2 2 4 3 3 3 2 1 1 4 8 10 12 11 10 10 9 8 8 7 5 5 6 11 12 10 9 7 6 6
10 3 8 14 11 11 10 3 3 5 5 6 6 7 8 9 7 4 3 1 7 2 1 1 2 4 2 1 2 2 2 2 7 9 8 11 10 11 9 8 9 9 8 7 6 6 6 12 12 10 8 5 6 6
3 4 11 12 8 5 4 4 3 4 7 6 8 8 9 6 5 5 3 2 3 2 3 4 1 3 2 1 0 3 3 4 7 8 9 9 11 9 8 9 9 8 7 8 7 5 7 9 9 6 7 7 6 5
1 3 9 12 4 1 3 5 4 4 7 7 9 8 6 6 3 3 7 3 4 4 5 3 2 2 1 2 5 4 4 5 7 8 8 9 10 11 10 8 9 9 7 7 7 6 6 8 7 5 4 6 5 4
7 4 9 9 6 2 4 4 4 5 6 3 6 6 6 4 5 2 4 1 1 3 3 4 3 1 1 3 1 4 5 8 9 9 8 7 6 9 8 7 6 7 7 8 7 9 7 6 5 4 4 4 5 6
3 4 5 6 3 4 4 3 4 4 5 4 5 4 4 4 1 2 2 1 1 2 1 1 3 2 4 2 4 5 8 8 8 9 9 8 5 6 6 6 8 7 7 7 7 6 8 7 7 5 4 3 4 6
2 11 2 2 2 4 5 6 4 2 3 5 7 4 3 3 3 3 2 2 3 3 4 3 3 4 4 3 3 4 7 7 10 8 8 9 8 7 6 7 8 7 7 8 8 8 8 8 7 5 6 5 5 5
5 6 2 6 5 4 7 5 4 4 4 3 3 3 3 3 3 3 3 3 3 3 4 4 4 2 5 0 2 7 6 7 7 8 7 7 6 5 6 7 8 6 5 6 7 10 10 10 8 7 6 6 5 4
1 4 5 4 8 5 5 5 4 4 4 7 4 4 1 2 3 2 1 2 4 4 6 6 5 4 3 4 5 4 3 3 4 5 5 5 4 4 3 6 5 4 7 8 9 10 10 9 11 9 8 8 7 7
4 5 4 4 5 6 5 5 8 7 6 6 9 5 2 0 2 2 3 3 5 5 5 4 4 4 4 4 4 3 3 4 3 2 3 4 3 2 2 1 4 5 9 10 10 9 9 11 10 11 11 9 10 10
5 7 7 7 6 6 5 4 7 9 8 6 4 2 3 2 4 2 2 4 5 5 4 4 3 3 4 5 4 3 3 2 4 3 1 1 1 3 4 2 2 2 9 10 10 10 13 10 9 13 11 10 9 9
5 7 7 6 3 5 3 6 5 5 6 6 4 5 4 4 3 3 3 3 5 4 5 4 4 4 3 3 4 4 3 2 2 3 6 4 2 5 4 3 2 2 7 11 9 10 11 10 7 10 10 9 8 7
6 5 8 7 8 4 6 7 5 6 5 3 3 5 4 1 3 2 2 3 4 5 4 4 3 4 4 4 4 3 3 3 5 4 3 3 5 5 3 4 5 1 4 6 7 6 9 9 8 7 9 8 6 6
6 5 4 4 8 8 6 4 4 3 3 5 3 2 2 3 4 3 3 5 4 5 4 3 4 3 3 4 2 2 2 2 4 8 8 4 4 4 6 4 4 2 1 5 5 10 13 10 6 5 10 10 9 7
7 6 5 8 10 9 4 4 3 1 3 4 4 8 8 5 5 5 7 5 5 4 3 3 2 1 2 4 5 5 4 8 8 7 6 4 3 3 4 6 6 5 5 3 6 6 4 4 4 2 6 8 9 9
5 3 8 8 10 7 4 2 2 2 6 3 8 8 6 3 6 6 4 6 5 4 3 3 5 6 6 5 4 4 7 5 9 8 6 3 4 4 3 3 3 3 3 4 4 2 5 5 5 5 9 11 13 13
4 4 5 9 6 4 6 3 2 1 5 6 5 7 5 3 2 4 5 3 6 4 3 4 6 5 6 7 6 5 4 6 6 7 8 6 6 6 5 1 3 3 3 3 3 3 2 4 4 8 6 10 11 13
7 7 9 6 3 4 4 5 3 2 2 3 2 2 2 3 3 2 3 5 4 5 4 5 6 7 9 9 7 5 7 7 7 7 7 6 5 4 4 4 5 5 3 1 1 2 3 2 3 5 9 9 6 7
Wind_Direction
283 288 293 299 304 303 298 279 264 270 282 294 301 313 318 330 338 335 285 280 272 270 289 255 287 301 305 297 309 310 0 6 344 20 359 347 338 331 313 32 46 49 324 37 25 34 22 350 339 75 187 140 158 156
280 284 289 298 303 305 300 284 262 265 271 282 295 307 310 321 327 336 276 347 312 247 265 288 276 261 253 253 267 301 70 29 350 342 353 298 306 353 315 65 353 65 29 106 118 175 334 329 290 11 128 130 143 145
277 283 288 288 291 297 297 286 255 259 266 279 292 301 308 312 312 314 289 305 298 267 288 281 258 273 232 228 229 272 59 91 82 146 307 299 332 343 356 22 6 356 21 79 344 30 19 9 40 74 87 81 73 89
285 292 297 296 296 296 292 285 253 255 262 276 288 296 303 307 307 307 281 289 291 269 278 285 352 319 301 298 278 138 115 103 118 36 359 338 327 11 354 42 38 352 313 334 360 14 8 348 359 93 106 108 91 85
286 299 300 300 296 297 293 286 251 251 257 270 282 292 300 308 311 296 258 234 237 272 302 297 302 257 273 258 255 132 125 139 81 57 11 11 330 344 343 65 33 338 353 353 44 19 121 358 326 129 114 113 130 122
293 298 300 302 295 292 290 284 246 244 257 268 279 292 301 310 324 292 285 135 254 217 284 302 325 281 294 224 203 116 120 100 87 110 83 64 24 323 15 60 355 340 340 101 69 34 36 359 33 78 114 116 116 118
281 295 300 301 299 294 287 281 241 248 258 270 282 291 296 297 287 251 294 308 320 331 246 288 284 252 232 268 132 115 111 132 121 117 103 92 13 34 24 41 344 354 23 41 45 39 31 21 27 43 71 75 82 96
280 286 298 297 292 287 288 266 237 248 262 278 287 291 294 290 278 262 241 237 228 267 273 268 268 260 223 267 269 156 126 111 53 124 103 81 35 50 48 343 359 352 15 55 57 65 69 58 48 49 62 79 73 64
285 286 288 289 285 286 288 230 240 264 279 291 300 295 286 207 228 251 2 133 164 272 281 247 277 280 286 274 40 335 103 97 188 100 87 88 4 47 303 342 43 46 38 78 77 74 73 62 62 59 57 63 77 74
293 294 291 287 286 289 204 194 253 283 294 298 295 257 240 233 127 130 9 166 189 225 219 253 253 270 313 284 310 315 197 135 121 105 104 81 87 256 201 130 87 62 52 53 62 47 67 77 71 68 66 64 65 67
297 297 291 288 287 194 173 216 274 318 286 161 254 273 296 181 221 214 227 203 174 219 218 236 206 238 285 57 353 247 239 172 123 179 118 127 139 135 81 160 132 107 88 70 59 48 46 62 79 78 74 78 75 63
296 294 290 284 172 160 186 209 302 294 12 291 291 272 262 254 230 246 223 214 193 227 175 250 191 240 304 102 246 277 233 278 147 146 116 133 137 154 139 119 113 146 142 133 127 114 81 47 47 61 69 69 91 99
296 290 273 164 159 175 182 218 268 292 306 228 208 249 201 228 292 224 211 255 242 6 39 342 333 119 7 12 295 263 304 241 128 157 101 96 147 167 160 158 154 149 129 121 126 134 126 107 87 77 81 83 80 73
289 242 156 159 173 177 193 235 299 326 276 245 224 259 236 213 229 206 254 287 75 99 68 306 289 100 338 312 260 280 251 91 222 120 107 147 158 147 130 140 146 150 127 99 124 144 137 127 115 93 61 69 84 84
215 159 162 186 190 189 191 225 264 263 274 249 240 234 232 249 298 277 294 8 199 39 209 215 300 136 273 266 263 320 286 74 40 136 151 150 138 139 142 122 109 103 97 85 94 115 122 114 98 79 67 71 79 82
151 141 211 171 189 197 196 209 207 236 243 240 236 268 281 285 298 11 8 348 148 186 236 20 337 277 199 230 242 235 6 61 119 118 132 135 141 150 159 149 156 147 120 121 115 92 76 113 108 101 87 78 78 93
162 245 164 166 179 195 202 224 206 220 239 235 238 238 256 281 282 289 150 44 316 282 303 241 231 233 261 243 214 53 93 110 109 122 135 142 142 139 142 141 125 119 112 108 101 97 103 121 120 114 113 105 94 91
222 128 160 162 158 165 182 218 253 248 243 251 263 263 269 257 255 262 252 95 83 88 51 296 299 267 235 291 60 115 117 121 129 136 138 138 130 132 125 124 126 124 111 109 111 107 111 121 114 120 131 129 115 110
105 177 172 170 170 199 206 213 227 259 246 253 251 256 271 276 224 248 285 148 138 184 132 259 311 267 293 48 129 134 129 122 127 131 134 134 140 136 133 135 131 127 148 152 127 106 82 105 116 132 143 149 147 153
65 88 157 157 154 244 234 213 210 248 269 271 267 268 268 273 269 223 131 55 169 158 195 180 210 253 197 88 117 123 109 126 124 126 130 134 144 138 144 147 143 142 130 122 123 130 129 126 125 138 160 167 155 164
115 161 137 165 180 228 281 266 226 248 283 277 281 294 273 283 327 17 336 19 206 209 165 210 142 107 166 118 107 117 134 139 147 149 150 154 148 143 159 155 155 170 157 172 163 164 157 145 144 152 163 165 116 128
177 183 124 168 244 224 246 233 245 204 238 264 289 267 269 284 268 212 174 164 201 205 175 180 161 191 149 148 176 142 143 155 143 141 141 145 164 176 185 180 182 195 185 183 165 156 134 135 142 147 122 116 118 134
158 179 212 194 217 226 252 241 228 232 244 260 231 229 235 216 186 166 207 198 187 163 165 155 139 132 122 71 280 148 157 147 138 149 151 173 175 180 189 180 188 203 179 159 131 137 139 141 140 132 133 132 139 145
136 178 196 216 201 241 241 202 217 245 253 242 252 251 205 186 157 198 218 135 143 104 111 123 113 103 70 65 63 88 78 90 120 144 175 174 157 180 204 169 174 184 134 129 119 130 140 147 147 148 153 161 176 172
170 197 209 225 228 233 228 209 208 220 230 249 240 252 168 232 213 245 139 139 147 135 142 116 142 152 149 133 117 115 60 101 120 110 349 56 82 63 333 326 159 138 135 134 142 148 150 150 160 159 168 178 182 182
201 211 198 211 206 213 212 226 201 213 233 251 243 152 172 207 204 142 100 154 157 156 127 130 136 133 153 164 161 162 169 209 144 148 115 152 201 171 209 252 319 160 151 149 150 154 154 167 165 166 172 182 188 185
218 217 196 233 235 221 240 233 224 215 224 208 212 177 185 210 146 92 76 64 118 122 131 139 135 148 151 127 103 110 107 143 136 110 145 128 243 230 170 149 276 270 127 142 152 160 156 157 187 174 178 180 187 182
241 264 218 230 210 196 235 251 204 205 216 241 160 205 197 102 105 132 106 110 109 113 103 113 106 144 126 127 143 153 163 170 125 138 124 134 61 35 62 126 123 150 119 127 121 124 146 172 210 175 170 157 154 151
229 226 169 240 247 217 225 231 237 217 249 237 190 113 88 66 101 94 124 127 106 112 106 104 99 107 119 111 206 159 115 98 171 178 179 168 129 29 3 74 62 22 306 160 166 162 169 186 208 182 165 160 164 165
226 210 225 210 231 225 216 236 249 18 292 88 102 98 93 103 144 140 129 139 130 124 118 105 79 21 105 145 114 80 48 62 47 48 47 74 84 66 40 36 39 30 15 353 140 131 106 154 184 181 176 160 166 173
221 236 241 240 251 238 138 331 100 81 254 101 117 123 122 131 85 28 84 119 123 104 74 111 73 70 70 69 78 90 92 81 85 62 40 48 96 90 57 49 67 44 26 11 15 91 187 192 208 205 189 182 176 179
168 208 243 233 233 113 90 69 316 7 102 107 119 115 98 75 93 58 356 347 108 87 25 92 87 87 102 100 90 72 82 86 70 63 42 31 32 14 358 10 126 104 65 36 4 351 42 30 225 214 236 206 194 190
192 237 248 246 160 138 135 120 152 194 115 116 96 85 84 118 123 95 33 29 28 98 92 89 94 83 74 86 87 75 73 85 90 92 91 82 59 17 324 316 341 360 351 76 8 359 314 321 347 328 230 230 237 215